This is the latest recevied weather packets stored in our database for station/object E25RIV-1. If no packets are shown the sender has not sent any weather packets the latest 10 day(s).
| Time | Temp. | Humidity | Pressure | Rain* | Wind** | Luminosity | Snow |
|---|---|---|---|---|---|---|---|
| 1777469777 | 30.56° C | 96% | 1003 hPa | - | - | 0 W/m² | - |
| 1777469153 | 30.56° C | 95% | 1003 hPa | - | - | 0 W/m² | - |
| 1777468529 | 31.11° C | 94% | 1003 hPa | - | - | 0 W/m² | - |
| 1777467905 | 31.11° C | 88% | 1003 hPa | - | - | 0 W/m² | - |
| 1777467281 | 31.11° C | 85% | 1003 hPa | - | - | 0 W/m² | - |
| 1777466657 | 31.67° C | 83% | 1003 hPa | - | - | 0 W/m² | - |
| 1777466033 | 31.67° C | 82% | 1003 hPa | - | - | 0 W/m² | - |
| 1777465409 | 31.67° C | 81% | 1002 hPa | - | - | 0 W/m² | - |
| 1777464785 | 32.22° C | 78% | 1002 hPa | - | - | 0 W/m² | - |
| 1777464161 | 32.22° C | 74% | 1002 hPa | - | - | 0 W/m² | - |
| 1777463537 | 32.78° C | 71% | 1001 hPa | - | - | 0 W/m² | - |
| 1777462913 | 32.78° C | 71% | 1002 hPa | - | - | 0 W/m² | - |
| 1777462289 | 33.33° C | 65% | 1000 hPa | - | - | 0 W/m² | - |
| 1777461665 | 33.89° C | 62% | 999 hPa | - | - | 0 W/m² | - |
| 1777461041 | 34.44° C | 60% | 997 hPa | - | - | 0 W/m² | - |
| 1777460417 | 35° C | 58% | 996 hPa | - | - | 0 W/m² | - |
| 1777459793 | 35.56° C | 58% | 996 hPa | - | - | 0 W/m² | - |
| 1777459169 | 35.56° C | 58% | 996 hPa | - | - | 0 W/m² | - |
| 1777458545 | 35.56° C | 56% | 994 hPa | - | - | 0 W/m² | - |
| 1777457921 | 36.11° C | 55% | 993 hPa | - | - | 0 W/m² | - |
| 1777457297 | 36.11° C | 54% | 992 hPa | - | - | 0 W/m² | - |
| 1777456673 | 36.67° C | 54% | 993 hPa | - | - | 0 W/m² | - |
| 1777456049 | 36.11° C | 56% | 993 hPa | - | - | 0 W/m² | - |
| 1777455425 | 36.11° C | 59% | 994 hPa | - | - | 0 W/m² | - |
| 1777454801 | 35.56° C | 59% | 994 hPa | - | - | 0 W/m² | - |
* Rain since midnight (hover to see other rain measurements)
** Current wind speed in m/s (hover to see current wind gust speed)